This demonstration page uses our WeatherBlox Daily Observations layout. Learn more.

Left ArrowRight Arrow

Hourly Observations for December 4, 2015

Temp ( °F °C ) Dew Point ( °F °C ) Humidity (%) Winds ( mph kmh ) Pressure ( in mb ) Visibility ( mi km ) Precip ( " mm )
12:02 am 00:02 Clear 43 6.1 14 -10 31 31 ESE 9 15 30.24 1024 10 16 N/A
12:51 am 00:51 Clear 46 7.8 14 -10 27 27 SE 12 19 30.12 1020 10 16 N/A
1:51 am 01:51 Clear 45 7.2 14 -10 29 29 ESE 10 17 30.13 1020 10 16 N/A
2:51 am 02:51 Clear 46 7.8 13 -10.6 26 26 ESE 13 20 30.12 1020 10 16 N/A
3:51 am 03:51 Clear 46 7.8 13 -10.6 26 26 ESE 12 19 30.12 1020 10 16 N/A
4:51 am 04:51 Clear 47 8.3 12 -11.1 24 24 ESE 15 24 30.11 1020 10 16 N/A
5:51 am 05:51 Clear 45 7.2 12 -11.1 26 26 ESE 13 20 30.15 1021 10 16 N/A
6:51 am 06:51 Clear 42 5.6 13 -10.6 30 30 ESE 9 15 30.18 1022 10 16 N/A
7:51 am 07:51 Sunny 45 7.2 13 -10.6 27 27 ESE 9 15 30.19 1022 10 16 N/A
8:51 am 08:51 Sunny 49 9.4 12 -11.1 22 22 ESE 14 22 30.19 1022 10 16 N/A
9:51 am 09:51 Sunny 53 11.7 14 -10 21 21 ESE 12 19 30.21 1023 10 16 N/A
10:51 am 10:51 Sunny 55 12.8 14 -10 20 20 ESE 7 11 30.20 1023 10 16 N/A
11:51 am 11:51 Sunny 61 16.1 14 -10 16 16 VRB 5 7 30.16 1021 10 16 N/A
12:51 pm 12:51 Sunny 64 17.8 15 -9.4 15 15 SE 10 17 30.10 1019 10 16 N/A
1:51 pm 13:51 Sunny 65 18.3 15 -9.4 14 14 VRB 3 6 30.07 1018 10 16 N/A
2:51 pm 14:51 Sunny 67 19.4 17 -8.3 15 15 SSE 6 9 30.04 1017 10 16 N/A
3:51 pm 15:51 Sunny 67 19.4 17 -8.3 15 15 SSW 7 11 30.04 1017 10 16 N/A
4:51 pm 16:51 Sunny 63 17.2 17 -8.3 17 17 WSW 3 6 30.06 1018 10 16 N/A
5:51 pm 17:51 Clear 54 12.2 16 -8.9 22 22 NNE 7 11 30.09 1019 10 16 N/A
6:51 pm 18:51 Clear 52 11.1 16 -8.9 24 24 E 3 6 30.11 1020 10 16 N/A
7:51 pm 19:51 Clear 52 11.1 18 -7.8 26 26 N N/A 30.11 1020 10 16 N/A
8:51 pm 20:51 Clear 44 6.7 15 -9.4 31 31 N N/A 30.13 1020 10 16 N/A
9:51 pm 21:51 Clear 41 5 15 -9.4 35 35 N N/A 30.14 1021 10 16 N/A
10:51 pm 22:51 Clear 39 3.9 15 -9.4 38 38 SE 3 6 30.15 1021 10 16 N/A
11:51 pm 23:51 Clear 41 5 16 -8.9 36 36 E 5 7 30.14 1021 10 16 N/A

Powered by AerisWeather